Regional Weather Roundup
Issued by NWS

Home | Current Version | Previous Version | Graphics & Text | Print | Product List | Glossary On
Versions: 1 2 3 4 5 6 7 8 9 10 11 12 13 14 15 16 17 18 19 20 21 22 23 24 25 26 27 28 29 30 31 32 33 34 35 36 37 38 39 40 41 42 43 44 45 46 47 48 49 50
000
ASUS45 KTFX 301210
RWRMT
MONTANA REGIONAL WEATHER ROUNDUP
NATIONAL WEATHER SERVICE GREAT FALLS MT
600 AM MDT MON MAY 30 2016

NOTE: "FAIR" INDICATES FEW OR NO CLOUDS BELOW 12000 FEET WITH NO
SIGNIFICANT WEATHER AND/OR OBSTRUCTIONS TO VISIBILITY.

MTZ001>007-043-301300-
WEST OF THE DIVIDE

CITY           SKY/WX    TMP DP  RH WIND       PRES   REMARKS
KALISPELL      PTCLDY    42  40  92 NW3       30.09R
MISSOULA       PTCLDY    45  42  89 CALM      30.10R
BUTTE          CLEAR     36  34  92 SE7       30.11R WCI  30
MULLAN PASS    CLEAR     34  32  92 N6        30.13R WCI  29
ANACONDA         N/A     43  36  75 W3        30.09S
DEER LODGE       N/A     45  39  81 N6        30.10R
EUREKA           N/A     45  43  93 CALM      30.13R
HAMILTON         N/A     48  41  76 E3        30.11R
LIBBY            N/A     37  36  93 CALM      30.14R
$$

MTZ008-052>055-301300-
SOUTHWEST MONTANA

CITY           SKY/WX    TMP DP  RH WIND       PRES   REMARKS
BOZEMAN        LGT RAIN  49  46  90 S3        30.07R
DILLON         PTCLDY    43  36  76 SW8       30.09R
W YELLOWSTONE  CLOUDY    36  36 100 NW5       30.12R
ENNIS          MOCLDY    46  37  71 CALM      30.13S
$$

MTZ009-010-012-014-046-048-049-054-301300-
EAST SLOPES AND CENTRAL MONTANA

CITY           SKY/WX    TMP DP  RH WIND       PRES   REMARKS
CUT BANK       CLOUDY    41  39  93 NW17      30.04R
GREAT FALLS    CLEAR     44  38  79 NW3       30.02R
MALMSTROM AFB  CLEAR     47  41  77 NW6       30.01R
HELENA         CLOUDY    49  38  65 W9        30.04R
CHOTEAU          N/A     43  41  93 N9        30.06R
$$

MTZ011-013-016-021-045-047-050-051-301300-
NORTH CENTRAL MONTANA

CITY           SKY/WX    TMP DP  RH WIND       PRES   REMARKS
HAVRE          CLOUDY    49  44  83 W8        29.97R
LEWISTOWN      CLOUDY    50  44  80 MISG      29.99S
N BAR RANCH      N/A     45  41  87 NW8       30.02R
CHINOOK          N/A     52  45  76 W14       29.95R
$$

MTZ017>020-022>027-061-062-301300-
NORTHEAST MONTANA

CITY           SKY/WX    TMP DP  RH WIND       PRES   REMARKS
GLASGOW        CLOUDY    58  44  60 SW8       29.92R
JORDAN           N/A     55  48  77 CALM      29.95R
SIDNEY         CLOUDY    50  45  81 CALM      29.89S
WOLF POINT     CLOUDY    61  44  53 SW6       29.90F
POPLAR           N/A     54  41  62 NE3       29.90F
$$

MTZ028>42-056>058-301300-
SOUTHCENTRAL AND SOUTHEAST MONTANA

CITY           SKY/WX    TMP DP  RH WIND       PRES   REMARKS
BAKER          CLOUDY    55  49  80 VRB3      29.89F
BILLINGS       CLOUDY    53  49  86 NW7       30.00R
LIVINGSTON     LGT RAIN  51  42  71 NW15      30.05R
MILES CITY     MOCLDY    56  50  80 N14       29.88S
FORSYTH          N/A     57  50  77 N7        29.93R
$$

REGIONAL REPORTS...DAKOTAS

CITY           SKY/WX    TMP DP  RH WIND       PRES   REMARKS
WILLISTON      CLOUDY    48  43  82 NE5       29.90S
MINOT          CLEAR     53  48  83 CALM      29.89S
DICKINSON      CLEAR     50  46  86 SE3       29.89F
BEACH          LGT RAIN  54  52  94 N12       29.92F
CROSBY           N/A     54  48  82 SW9       29.92S
WATFORD CITY     N/A     46  45  93 E5        29.90S
BISMARCK       CLEAR     53  52  96 NE3       29.94S
GRAND FORKS    MOSUNNY   59  49  69 CALM      29.91S
FARGO          MOSUNNY   59  48  67 SE6       29.94R
BUFFALO SD       N/A     55  51  86 E8        29.82F
RAPID CITY     CLOUDY    48  47  96 E3        29.90S
$$

REGIONAL REPORTS...WYOMING/IDAHO/WASHINGTON

CITY           SKY/WX    TMP DP  RH WIND       PRES   REMARKS
GILLETTE       CLEAR     55  41  59 SW17      29.89F
SHERIDAN       MOCLDY    53  45  74 N13G24    29.97R
BUFFALO WY       N/A     54  41  61 NW25G38   29.95S
CODY           CLOUDY    54  39  58 N7        30.03R
YELLOWSTONE LA   N/A     36  34  92 CALM      30.18R
IDAHO FALLS    CLEAR     46  41  82 SW10      30.07R
SALMON         PTCLDY    45  36  70 CALM      30.10R
BOISE          PTCLDY    53  36  52 W8        30.11R
SPOKANE        CLEAR     43  35  73 W9        30.16R
$$

REGIONAL REPORTS...ALBERTA

CITY           SKY/WX    TMP DP  RH WIND       PRES   REMARKS
EDMONTON       CLOUDY    45  39  81 NW8       30.05S
CALGARY        MOCLDY    43  37  81 NW17      30.06R
LETHBRIDGE     LGT RAIN  43  41  93 W24       30.05R
MEDICINE HAT   MOCLDY    50  45  81 W9        29.92F
WATERTON GATE    N/A     39  37  93 N2          N/A
MILK RIVER       N/A     43  41  93 W17G24      N/A
$$

REGIONAL REPORTS...SASKATCHEWAN

CITY           SKY/WX    TMP DP  RH WIND       PRES   REMARKS
SWIFT CURRENT  PTCLDY    50  43  76 SW10      29.87R
REGINA         PTCLDY    46  43  87 E5        29.88R
SASKATOON      CLOUDY    48  48 100 NE14G20   29.95R
VAL MARIE        N/A     46  43  87 NE2         N/A
ROCKGLEN         N/A     52  43  71 S5          N/A
ASSINIBOIA       N/A     48  46  93 NW13        N/A
$$



USA.gov is the U.S. government's official web portal to all federal, state and local government web resources and services.